EW1786 Weather Reports


time (UTC)temp
C
wind
direction
speed
KPH
gust
KPH
rain 1hr
cm
rain 24hr
cm
rain mn
cm
humidity
%
barometer
mb
20260507064516 16 262 0.0 1.6 0.00 0.00 0.00 67 1010.5
20260507063517 16 258 0.0 3.2 0.00 0.00 0.00 66 1010.4
20260507062517 15 271 0.0 1.6 0.00 0.00 0.00 68 1010.2
20260507061517 15 243 1.6 3.2 0.00 0.00 0.00 66 1010.1
20260507060516 14 236 1.6 3.2 0.00 0.00 0.00 71 1010.0
20260507055517 14 252 1.6 1.6 0.00 0.00 0.00 73 1010.0
20260507054516 13 0.0 1.6 0.00 0.00 0.00 73 1009.9
20260507053516 13 252 0.0 3.2 0.00 0.00 0.00 72 1009.8
20260507052518 12 227 1.6 3.2 0.00 0.00 0.00 78 1009.7
20260507051518 11 258 1.6 3.2 0.00 0.00 0.00 80 1009.6
20260507050519 11 238 0.0 3.2 0.00 0.00 0.00 81 1009.5
20260507045519 11 236 0.0 1.6 0.00 0.00 0.00 81 1009.5
20260507044522 11 236 1.6 1.6 0.00 0.00 0.00 81 1009.3
20260507043518 11 236 0.0 1.6 0.00 0.00 0.00 84 1009.2
20260507042518 11 236 0.0 1.6 0.00 0.00 0.00 82 1009.1
20260507041517 11 236 0.0 3.2 0.00 0.00 0.00 81 1009.1
20260507040538 11 253 1.6 1.6 0.00 0.00 0.00 79 1009.0
20260507035539 11 242 1.6 3.2 0.00 0.00 0.00 79 1008.9
20260507034518 11 237 1.6 3.2 0.00 0.00 0.00 82 1008.8
20260507033518 11 0.0 1.6 0.00 0.00 0.00 80 1008.8
20260507032519 12 257 0.0 1.6 0.00 0.00 0.00 77 1008.8
20260507031518 12 233 1.6 4.8 0.00 0.00 0.00 76 1008.7
20260507030538 12 235 1.6 3.2 0.00 0.00 0.00 77 1008.8
20260507025519 12 268 0.0 3.2 0.00 0.00 0.00 76 1008.8
20260507024538 12 221 1.6 3.2 0.00 0.00 0.00 77 1008.7
20260507023518 12 221 1.6 3.2 0.00 0.00 0.00 77 1008.7
20260507022518 12 259 0.0 1.6 0.00 0.00 0.00 76 1008.6
20260507021518 13 244 0.0 9.7 0.00 0.00 0.00 73 1008.6
20260507020518 13 241 1.6 4.8 0.00 0.00 0.00 73 1008.5
20260507015538 13 243 1.6 8.0 0.00 0.00 0.00 75 1008.6
20260507014519 12 225 4.8 6.4 0.00 0.00 0.00 79 1008.5
20260507013518 12 242 0.0 3.2 0.00 0.00 0.00 78 1008.4
20260507012518 12 236 1.6 6.4 0.00 0.00 0.00 79 1008.3
20260507011519 12 230 4.8 6.4 0.00 0.00 0.00 80 1008.3
20260507010538 12 256 0.0 1.6 0.00 0.00 0.00 80 1008.3
20260507005518 13 261 0.0 8.0 0.00 0.00 0.00 77 1008.3
20260507004519 13 230 1.6 6.4 0.00 0.00 0.00 74 1008.3
20260507003518 14 229 3.2 4.8 0.00 0.00 0.00 69 1008.4
20260507002539 13 224 3.2 4.8 0.00 0.00 0.00 72 1008.5
20260507001517 13 239 1.6 3.2 0.00 0.00 0.00 70 1008.6
20260507000518 14 240 1.6 3.2 0.00 0.00 0.00 70 1008.6
20260506235517 14 235 1.6 3.2 0.00 0.00 0.00 70 1008.7
20260506234620 14 230 1.6 3.2 0.00 0.00 0.00 70 1008.6
20260506233517 13 239 1.6 4.8 0.00 0.00 0.00 70 1008.6
20260506232518 13 242 0.0 3.2 0.00 0.00 0.00 72 1008.7
20260506231538 14 265 0.0 3.2 0.00 0.00 0.00 68 1008.8
20260506230518 15 225 0.0 4.8 0.00 0.00 0.00 66 1008.8
20260506225518 15 227 3.2 6.4 0.00 0.00 0.00 66 1008.8
20260506224518 14 230 4.8 6.4 0.00 0.00 0.00 67 1008.7
20260506223538 14 230 3.2 4.8 0.00 0.00 0.00 69 1008.6
20260506222518 14 228 3.2 4.8 0.00 0.00 0.00 69 1008.5
20260506221518 14 237 1.6 3.2 0.00 0.00 0.00 69 1008.4
20260506220518 15 258 1.6 4.8 0.00 0.00 0.00 66 1008.5
20260506215520 16 226 3.2 8.0 0.00 0.00 0.00 60 1008.4
20260506214520 16 218 6.4 8.0 0.00 0.00 0.00 60 1008.4
20260506213518 16 218 4.8 8.0 0.00 0.00 0.00 61 1008.3
20260506212518 15 223 4.8 8.0 0.00 0.00 0.00 64 1008.3
20260506211518 15 234 1.6 4.8 0.00 0.00 0.00 65 1008.4
20260506210519 16 221 3.2 9.7 0.00 0.00 0.00 58 1008.3
20260506205618 16 219 6.4 11.3 0.00 0.00 0.00 57 1008.1
20260506204518 16 218 6.4 11.3 0.00 0.00 0.00 57 1008.0
20260506203517 16 217 6.4 9.7 0.00 0.00 0.00 57 1008.1
20260506202518 16 222 4.8 8.0 0.00 0.00 0.00 57 1008.0
20260506201538 16 227 4.8 6.4 0.00 0.00 0.00 56 1007.8
20260506200517 16 222 4.8 8.0 0.00 0.00 0.00 55 1007.9
20260506195517 16 220 4.8 8.0 0.00 0.00 0.00 56 1007.8
20260506194517 16 220 6.4 8.0 0.00 0.00 0.00 55 1007.6
20260506193519 16 222 4.8 8.0 0.00 0.00 0.00 55 1007.5
20260506192518 16 219 4.8 9.7 0.00 0.00 0.00 57 1007.4
20260506191517 16 207 3.2 4.8 0.00 0.00 0.00 60 1007.2
20260506190518 16 295 0.0 4.8 0.00 0.00 0.00 60 1007.1
20260506185517 16 215 0.0 3.2 0.00 0.00 0.00 63 1007.0
20260506184537 16 120 0.0 3.2 0.00 0.00 0.00 60
20260506183538 16 210 0.0 1.6 0.00 0.00 0.00 64
20260506182517 16 75 1.6 11.3 0.00 0.00 0.00 60
20260506181517 16 126 0.0 4.8 0.00 0.00 0.00 62
20260506180517 16 127 0.0 3.2 0.00 0.00 0.00 64
20260506175518 17 197 1.6 4.8 0.00 0.00 0.00 61
20260506174517 17 114 0.0 3.2 0.00 0.00 0.00 63
20260506173520 17 101 1.6 4.8 0.00 0.00 0.00 61
20260506172537 17 89 3.2 4.8 0.00 0.00 0.00 62
20260506171517 17 110 1.6 9.7 0.00 0.00 0.00 67
20260506170538 17 137 1.6 3.2 0.00 0.00 0.00 67
20260506165518 18 223 3.2 8.0 0.00 0.00 0.00 61
20260506164538 18 220 4.8 8.0 0.00 0.00 0.00 64 1005.9
20260506163518 18 212 4.8 6.4 0.00 0.00 0.00 65 1005.9
20260506162517 18 214 3.2 6.4 0.00 0.00 0.00 67 1006.0
20260506161518 18 191 3.2 4.8 0.00 0.00 0.00 68 1005.9
20260506160538 18 187 1.6 4.8 0.00 0.00 0.00 71 1005.9
20260506155517 18 134 1.6 6.4 0.00 0.00 0.00 72 1005.8
20260506154517 18 158 1.6 3.2 0.00 0.00 0.00 77 1005.8
20260506153517 18 223 0.0 4.8 0.00 0.00 0.00 75 1005.7
20260506152517 18 214 1.6 4.8 0.00 0.00 0.00 71 1005.8
20260506151517 18 219 1.6 4.8 0.00 0.00 0.00 73 1005.8
20260506150517 18 212 0.0 1.6 0.00 0.00 0.00 74 1005.8
20260506145537 18 223 0.0 4.8 0.00 0.00 0.00 75 1006.0
20260506144517 18 211 1.6 6.4 0.00 0.00 0.00 76 1005.7
20260506143537 17 217 3.2 8.0 0.00 0.00 0.00 77 1005.8
20260506142517 17 221 4.8 9.7 0.00 0.00 0.00 80 1005.9
20260506141517 17 220 4.8 9.7 0.00 0.00 0.00 81 1005.9
20260506140519 17 222 6.4 9.7 0.00 0.00 0.00 83 1006.0
20260506135517 17 221 4.8 8.0 0.00 0.00 0.00 84 1006.2
20260506134517 17 222 1.6 4.8 0.00 0.00 0.00 87 1006.4
20260506133517 16 227 1.6 6.4 0.00 0.00 0.00 88 1006.6
20260506132517 16 207 1.6 9.7 0.00 0.00 0.00 88 1006.8
20260506131517 16 216 4.8 8.0 0.00 0.00 0.00 88 1006.8
20260506130522 16 224 3.2 9.7 0.00 0.00 0.00 88 1007.2
20260506125517 16 231 1.6 4.8 0.00 0.00 0.00 89 1007.0
20260506124517 16 226 3.2 4.8 0.00 0.00 0.00 89 1007.0
20260506123517 16 226 3.2 8.0 0.00 0.00 0.00 87 1007.0
20260506122517 17 221 4.8 8.0 0.00 0.00 0.00 85 1006.9
20260506121517 18 228 1.6 9.7 0.00 0.00 0.00 81 1006.7
20260506120517 19 282 1.6 11.3 0.00 0.00 0.00 76 1006.5
20260506115519 20 237 1.6 8.0 0.00 0.00 0.00 74 1006.4
20260506114517 20 243 1.6 8.0 0.00 0.00 0.00 74 1006.5
20260506113517 19 273 1.6 4.8 0.00 0.00 0.00 76 1006.4
20260506112517 19 210 1.6 4.8 0.00 0.00 0.00 74 1006.5
20260506111517 20 201 3.2 11.3 0.00 0.00 0.00 74 1006.5
20260506110517 20 207 3.2 12.9 0.00 0.00 0.00 76 1006.5
20260506105517 19 181 3.2 12.9 0.00 0.00 0.00 81 1006.7
20260506104516 18 210 3.2 9.7 0.00 0.00 0.00 85 1006.7
20260506103537 17 199 4.8 11.3 0.00 0.00 0.00 89 1006.7
20260506102519 17 212 4.8 11.3 0.00 0.00 0.00 91 1006.8
20260506101517 17 203 4.8 12.9 0.00 0.00 0.00 92 1006.9
20260506100537 17 101 3.2 16.1 0.00 0.00 0.00 92 1006.9
20260506095537 16 84 1.6 17.7 0.00 0.00 0.00 92 1007.1
20260506094516 16 81 8.0 17.7 0.00 0.00 0.00 92 1007.0
20260506093518 15 81 6.4 16.1 0.00 0.00 0.00 92 1007.0
20260506092516 15 72 6.4 14.5 0.00 0.00 0.00 92 1007.0
20260506091516 15 79 6.4 16.1 0.00 0.00 0.00 92 1007.1
20260506090516 15 73 3.2 9.7 0.00 0.00 0.00 92 1007.0
20260506085517 15 73 4.8 11.3 0.00 0.00 0.00 92 1007.2
20260506084517 15 52 1.6 8.0 0.00 0.00 0.00 92 1007.2
20260506083536 15 54 1.6 4.8 0.00 0.00 0.00 92 1007.1
20260506082517 14 41 0.0 3.2 0.00 0.00 0.00 92 1007.1
20260506081519 14 48 0.0 1.6 0.00 0.00 0.00 92 1007.1
20260506080537 14 0.0 1.6 0.00 0.00 0.00 92 1007.1
20260506072518 13 113 0.0 8.0 0.00 0.00 0.00 92 1007.1
20260506071520 13 132 0.0 6.4 0.00 0.00 0.00 92 1007.2
20260506070539 13 254 0.0 3.2 0.00 0.00 0.00 92 1007.3